When you browse on this site, cookies collect data to enhance your experience and personalize the content and advertising you see.
Visit our Privacy Policy to learn more. By continuing to use the site, you agree to this use of cookies and data.
  • en France
  • Liste des pays
  • À 7 jours
  • Température de l'eau
  • Carte satellitaire
  • Carte météo
  • Widgets météo
  • user-avatar
    Se connecter

    Météo par heure à Bridlington

    Ce jour, 18 Juin, Mardi

    Heure Température Précipitation Vent Pression Humidité
    00:00 +12°C° 0 mm 4 m/s 759 mmHg 94%
    01:00 +11°C° 0 mm 4 m/s 758 mmHg 93%
    02:00 +11°C° 0 mm 4 m/s 758 mmHg 93%
    03:00 +10°C° 0 mm 3 m/s 758 mmHg 92%
    04:00 +11°C° 0 mm 3 m/s 758 mmHg 91%
    05:00 +11°C° 0 mm 3 m/s 758 mmHg 90%
    06:00 +12°C° 0 mm 3 m/s 758 mmHg 88%
    07:00 +13°C° 0 mm 3 m/s 758 mmHg 84%
    08:00 +14°C° 0 mm 4 m/s 758 mmHg 80%
    09:00 +17°C° 0 mm 4 m/s 758 mmHg 76%
    10:00 +17°C° 0 mm 4 m/s 758 mmHg 75%
    11:00 +18°C° 0 mm 4 m/s 758 mmHg 73%
    12:00 +19°C° 0 mm 4 m/s 758 mmHg 72%
    13:00 +19°C° 0 mm 3 m/s 758 mmHg 71%
    14:00 +19°C° 0 mm 3 m/s 757 mmHg 70%
    15:00 +19°C° 0 mm 3 m/s 757 mmHg 70%
    16:00 +19°C° 0.1 mm 3 m/s 757 mmHg 74%
    17:00 +18°C° 0.1 mm 4 m/s 757 mmHg 79%
    18:00 +17°C° 0.1 mm 4 m/s 757 mmHg 83%
    19:00 +15°C° 0.2 mm 4 m/s 757 mmHg 87%
    20:00 +15°C° 0.2 mm 4 m/s 757 mmHg 90%
    21:00 +14°C° 0.2 mm 3 m/s 757 mmHg 94%
    22:00 +14°C° 0.3 mm 3 m/s 756 mmHg 95%
    23:00 +13°C° 0.3 mm 3 m/s 756 mmHg 96%

    Demain, 19 Juin, Mercredi

    Heure Température Précipitation Vent Pression Humidité
    00:00 +13°C° 0.3 mm 3 m/s 756 mmHg 97%
    01:00 +13°C° 0.3 mm 3 m/s 756 mmHg 97%
    02:00 +14°C° 0.3 mm 2 m/s 755 mmHg 97%
    03:00 +14°C° 0.3 mm 2 m/s 755 mmHg 97%
    04:00 +14°C° 0.2 mm 2 m/s 754 mmHg 97%
    05:00 +14°C° 0.2 mm 2 m/s 754 mmHg 98%
    06:00 +14°C° 0.2 mm 2 m/s 754 mmHg 98%
    07:00 +14°C° 1.1 mm 2 m/s 753 mmHg 97%
    08:00 +14°C° 1.1 mm 2 m/s 753 mmHg 97%
    09:00 +14°C° 1.1 mm 2 m/s 753 mmHg 97%
    10:00 +13°C° 0.3 mm 3 m/s 753 mmHg 95%
    11:00 +13°C° 0.3 mm 4 m/s 753 mmHg 94%
    12:00 +13°C° 0.3 mm 5 m/s 753 mmHg 92%
    13:00 +14°C° 0 mm 4 m/s 753 mmHg 86%
    14:00 +15°C° 0 mm 4 m/s 753 mmHg 80%
    15:00 +17°C° 0 mm 4 m/s 753 mmHg 74%
    16:00 +17°C° 0.1 mm 3 m/s 753 mmHg 77%
    17:00 +17°C° 0.1 mm 2 m/s 753 mmHg 79%
    18:00 +18°C° 0.1 mm 1 m/s 753 mmHg 81%
    19:00 +15°C° 0 mm 2 m/s 753 mmHg 84%
    20:00 +13°C° 0 mm 3 m/s 753 mmHg 86%
    21:00 +11°C° 0 mm 4 m/s 754 mmHg 89%
    22:00 +10°C° 0 mm 4 m/s 754 mmHg 90%
    23:00 +8°C° 0 mm 4 m/s 754 mmHg 91%

    Après-demain, 20 Juin, Jeudi

    Heure Température Précipitation Vent Pression Humidité
    00:00 +8°C° 0 mm 4 m/s 754 mmHg 92%
    01:00 +7°C° 0 mm 4 m/s 754 mmHg 92%
    02:00 +7°C° 0 mm 4 m/s 754 mmHg 93%
    03:00 +7°C° 0 mm 4 m/s 754 mmHg 93%
    04:00 +8°C° 0 mm 4 m/s 754 mmHg 92%
    05:00 +10°C° 0 mm 4 m/s 754 mmHg 91%
    06:00 +11°C° 0 mm 4 m/s 754 mmHg 90%
    07:00 +12°C° 0 mm 4 m/s 754 mmHg 86%
    08:00 +14°C° 0 mm 4 m/s 755 mmHg 82%
    09:00 +15°C° 0 mm 4 m/s 755 mmHg 77%
    10:00 +15°C° 0.2 mm 4 m/s 755 mmHg 76%
    11:00 +15°C° 0.2 mm 4 m/s 755 mmHg 74%
    12:00 +15°C° 0.2 mm 5 m/s 755 mmHg 73%
    13:00 +15°C° 0 mm 5 m/s 755 mmHg 70%
    14:00 +15°C° 0 mm 5 m/s 755 mmHg 67%
    15:00 +16°C° 0 mm 5 m/s 756 mmHg 64%
    16:00 +15°C° 0 mm 5 m/s 756 mmHg 67%
    17:00 +15°C° 0 mm 5 m/s 756 mmHg 70%
    18:00 +14°C° 0 mm 5 m/s 756 mmHg 73%
    19:00 +13°C° 0 mm 5 m/s 757 mmHg 77%
    20:00 +10°C° 0 mm 5 m/s 757 mmHg 82%
    21:00 +8°C° 0 mm 4 m/s 757 mmHg 87%
    22:00 +8°C° 0 mm 4 m/s 758 mmHg 88%
    23:00 +7°C° 0 mm 4 m/s 758 mmHg 90%

    21 Juin, Vendredi

    Heure Température Précipitation Vent Pression Humidité
    00:00 +6°C° 0 mm 4 m/s 758 mmHg 92%
    01:00 +7°C° 0 mm 3 m/s 758 mmHg 91%
    02:00 +7°C° 0 mm 3 m/s 758 mmHg 91%
    03:00 +7°C° 0 mm 3 m/s 759 mmHg 91%
    04:00 +8°C° 0 mm 3 m/s 759 mmHg 89%
    05:00 +9°C° 0 mm 3 m/s 759 mmHg 87%
    06:00 +10°C° 0 mm 3 m/s 759 mmHg 85%
    07:00 +11°C° 0.1 mm 3 m/s 759 mmHg 83%
    08:00 +13°C° 0.1 mm 3 m/s 760 mmHg 80%
    09:00 +14°C° 0.1 mm 3 m/s 760 mmHg 77%
    10:00 +14°C° 0.4 mm 3 m/s 760 mmHg 77%
    11:00 +16°C° 0.4 mm 3 m/s 760 mmHg 77%
    12:00 +16°C° 0.4 mm 3 m/s 760 mmHg 77%
    13:00 +16°C° 0.2 mm 2 m/s 760 mmHg 75%
    14:00 +16°C° 0.2 mm 2 m/s 760 mmHg 74%
    15:00 +16°C° 0.2 mm 2 m/s 760 mmHg 73%
    16:00 +16°C° 0.1 mm 2 m/s 761 mmHg 75%
    17:00 +15°C° 0.1 mm 2 m/s 761 mmHg 77%
    18:00 +15°C° 0.1 mm 2 m/s 761 mmHg 80%
    19:00 +14°C° 0 mm 2 m/s 761 mmHg 82%
    20:00 +12°C° 0 mm 2 m/s 762 mmHg 85%
    21:00 +9°C° 0 mm 3 m/s 762 mmHg 88%
    22:00 +9°C° 0 mm 3 m/s 762 mmHg 88%
    23:00 +8°C° 0 mm 3 m/s 763 mmHg 88%

    22 Juin, Samedi

    Heure Température Précipitation Vent Pression Humidité
    00:00 +7°C° 0 mm 3 m/s 763 mmHg 89%
    01:00 +7°C° 0 mm 3 m/s 763 mmHg 88%
    02:00 +7°C° 0 mm 3 m/s 763 mmHg 88%
    03:00 +7°C° 0 mm 3 m/s 763 mmHg 88%
    04:00 +8°C° 0 mm 2 m/s 763 mmHg 86%
    05:00 +9°C° 0 mm 2 m/s 763 mmHg 84%
    06:00 +11°C° 0 mm 1 m/s 764 mmHg 82%
    07:00 +13°C° 0 mm 1 m/s 764 mmHg 77%
    08:00 +14°C° 0 mm 1 m/s 764 mmHg 71%
    09:00 +16°C° 0 mm 1 m/s 764 mmHg 66%
    10:00 +16°C° 0 mm 1 m/s 764 mmHg 65%
    11:00 +17°C° 0 mm 2 m/s 764 mmHg 63%
    12:00 +18°C° 0 mm 2 m/s 764 mmHg 62%
    13:00 +17°C° 0 mm 3 m/s 764 mmHg 64%
    14:00 +17°C° 0 mm 3 m/s 764 mmHg 67%
    15:00 +17°C° 0 mm 4 m/s 764 mmHg 69%
    16:00 +15°C° 0 mm 4 m/s 763 mmHg 72%
    17:00 +15°C° 0 mm 4 m/s 763 mmHg 74%
    18:00 +14°C° 0 mm 4 m/s 763 mmHg 76%
    19:00 +13°C° 0 mm 4 m/s 764 mmHg 80%
    20:00 +11°C° 0 mm 3 m/s 764 mmHg 84%
    21:00 +10°C° 0 mm 3 m/s 764 mmHg 88%
    22:00 +9°C° 0 mm 3 m/s 764 mmHg 88%
    23:00 +9°C° 0 mm 3 m/s 764 mmHg 88%

    23 Juin, Dimanche

    Heure Température Précipitation Vent Pression Humidité
    00:00 +9°C° 0 mm 2 m/s 764 mmHg 89%
    01:00 +9°C° 0 mm 2 m/s 764 mmHg 88%
    02:00 +8°C° 0 mm 2 m/s 764 mmHg 88%
    03:00 +8°C° 0 mm 2 m/s 764 mmHg 88%
    04:00 +10°C° 0 mm 2 m/s 764 mmHg 86%
    05:00 +12°C° 0 mm 2 m/s 764 mmHg 85%
    06:00 +13°C° 0 mm 2 m/s 764 mmHg 83%
    07:00 +13°C° 0 mm 3 m/s 764 mmHg 79%
    08:00 +14°C° 0 mm 3 m/s 765 mmHg 75%
    09:00 +17°C° 0 mm 3 m/s 765 mmHg 71%
    10:00 +17°C° 0 mm 3 m/s 765 mmHg 70%
    11:00 +17°C° 0 mm 3 m/s 765 mmHg 68%
    12:00 +17°C° 0 mm 3 m/s 765 mmHg 67%
    13:00 +17°C° 0 mm 4 m/s 764 mmHg 69%
    14:00 +17°C° 0 mm 4 m/s 764 mmHg 71%
    15:00 +15°C° 0 mm 4 m/s 764 mmHg 72%
    16:00 +15°C° 0 mm 4 m/s 764 mmHg 76%
    17:00 +15°C° 0 mm 4 m/s 764 mmHg 79%
    18:00 +15°C° 0 mm 5 m/s 764 mmHg 83%
    19:00 +13°C° 0 mm 5 m/s 764 mmHg 87%
    20:00 +12°C° 0 mm 5 m/s 764 mmHg 91%
    21:00 +10°C° 0 mm 5 m/s 764 mmHg 95%
    22:00 +10°C° 0 mm 5 m/s 764 mmHg 95%
    23:00 +10°C° 0 mm 5 m/s 764 mmHg 95%
    Voir plus